Regional Weather Roundup
Issued by NWS Charleston, SC

Home | Current Version | Previous Version | Text Only | Print | Product List | Glossary On
Versions: 1 2 3 4 5 6 7 8 9 10 11 12 13 14 15 16 17 18 19 20 21 22 23 24 25 26 27 28 29 30 31 32 33 34 35 36 37 38 39 40 41 42 43 44 45 46 47 48 49 50
000
ASUS42 KCHS 291326
RWRCHS
REGIONAL WEATHER ROUNDUP
NATIONAL WEATHER SERVICE CHARLESTON SC
900 AM EDT SUN MAR 29 2015

NOTE: "FAIR" INDICATES FEW OR NO CLOUDS BELOW 12,000 FEET WITH NO
SIGNIFICANT WEATHER AND/OR OBSTRUCTIONS TO VISIBILITY.

NOT ALL STATIONS ARE QUALITY CONTROLLED BY THE NATIONAL
WEATHER SERVICE. USE DATA WITH CAUTION...ESPECIALLY
DEWPOINT OBSERVATIONS.

SCZ027-030-031-034>040-042>050-291400-
...SOUTHEAST SOUTH CAROLINA...

CITY           SKY/WX    TMP DP  RH WIND       PRES   REMARKS
N CHARLESTON   SUNNY     40  17  39 NE10G18   30.44R WCI  33
WATERFRONT PRK   N/A     41 N/A N/A NE17G24     N/A
MOUNT PLEASANT LGT RAIN  39  18  41 NE8       30.44R WCI  34
PINOPOLIS        N/A     41  25  52 E13       30.34R
MONCKS CORNER  FAIR      41  16  36 E10       30.44R
SUMMERVILLE    FAIR      41  23  48 NE7       30.45R
BEAUFORT MCAS  SUNNY     42  20  41 NE13G21   30.42R
BEAUFORT ARPT  FAIR      43  28  56 NE14      30.42R
HILTON HEAD IS SUNNY     43  23  45 N9        30.42
WALTERBORO     SUNNY     41  19  42 NE12      30.45R
ALLENDALE      FAIR      41  19  42 VRB5      30.43R

...SOUTHERN MIDLANDS AND PEE DEE...

CITY           SKY/WX    TMP DP  RH WIND       PRES   REMARKS
GEORGETOWN     NOT AVBL
KINGSTREE      NOT AVBL
ORANGEBURG     SUNNY     39  15  37 NE7       30.44R WCI  34
BARNWELL       FAIR      39  19  45 E12       30.44R WCI  32
AIKEN          FAIR      36  16  44 E12       30.46R WCI  27
MANNING        FLURRIES  37  10  32 NE10      30.45R WCI  30
COLUMBIA       SUNNY     37  12  35 E10       30.45R WCI  30
SUMTER         SUNNY     36  14  40 NE10      30.43R WCI  28
FLORENCE       SUNNY     37  16  42 NE9       30.45R WCI  30
MYRTLE BEACH   SUNNY     37  18  44 NE13      30.45R WCI  29
N MYRTLE BEACH SUNNY     37  18  46 N12       30.43R WCI  29

$$

GAZ063-065-086>088-099>101-113>116-118-119-134>141-150-291400-
...SOUTHEAST GEORGIA...

CITY           SKY/WX    TMP DP  RH WIND       PRES   REMARKS
SAVANNAH ARPT  SUNNY     42  25  50 NE10      30.41R
HUNTER AAF     SUNNY     44  25  46 NE15      30.38R
FORT STEWART   SUNNY     41  27  57 NE14      30.38R
STATESBORO     SUNNY     42  23  47 E8        30.43R
SYLVANIA       SUNNY     41  25  52 E13       30.44R
CLAXTON        FAIR      43  27  52 NE12G18   30.42R

...CSRA...CENTRAL AND FAR SOUTHEAST GEORGIA...

CITY           SKY/WX    TMP DP  RH WIND       PRES   REMARKS
THOMSON        SUNNY     40  25  54 CALM      30.47R
AUGUSTA-BUSH   SUNNY     38  19  46 E5        30.44R WCI  34
AUGUSTA-DANIEL SUNNY     39  13  34 E13       30.43R WCI  31
SWAINSBORO     FAIR      43  10  26 E7        30.43R
VIDALIA        SUNNY     43  27  52 E16G22    30.41R
EASTMAN        FAIR      42  27  54 E9        30.44R
HAZLEHURST     FAIR      43  27  52 NE12      30.39R
ALMA           SUNNY     42  25  50 NE7G17    30.38R
WAYCROSS       SUNNY     47  31  54 E10       30.39R
JESUP          FAIR      46  32  57 E9        30.40R
BAXLEY         FAIR      45  27  49 E10       30.40R
BRUNSWICK      SUNNY     46  36  66 N10       30.39R
SAINT SIMONS   SUNNY     44  35  70 N9        30.37R

$$

SCZ027-028-034-036>038-045-046-048>050-GAZ119-141-291400-
...LAKE AND SUPPLEMENTAL COASTAL OBSERVATIONS...

STATION/POSITION TIME  TEMP    WIND        PRES    WAVE   SWELL
                       AIR SEA DIR/SP/G            HT/PER HT/PER/DIR
                 (UTC) (F)     (DEG/KT/KT) (MB)    (FT/S) (FT/S/D)
UPR LAKE MARION  NOT AVBL
WINYAH BAY       1200   36      20/  7     1028.0R
LAKE MURRAY      1200   35      70/  3/  7 1029.5R
ACE BASIN NERRS  NOT AVBL
FORT PULASKI     1206   44 59   30/ 16/ 22 1029.3R
SAPELO ISLAND    1300   49      20/ 10     1028.0R

$$

ANZ835-935-AMZ111-154-330-350-352-354-370-450-454-472-291400-
...C-MAN AND BUOY OBSERVATIONS...

STATION/POSITION TIME  TEMP    WIND        PRES    WAVE   SWELL
                       AIR SEA DIR/SP/G            HT/PER HT/PER/DIR
                 (UTC) (F)     (DEG/KT/KT) (MB)    (FT/S) (FT/S/D)
BUOY 41004       1250   47 67   20/ 19/ 25 1028.4R   6/ 6   2/ 9
BUOY 41008       1250   52 60   30/ 21/ 25 1027.0R   3/ 4   2/330/10
FOLLY BEACH CMAN 1300   41      30/ 18/ 21 1030.2R
CAPERS NEARSHORE NOT AVBL
FRIPP NEARSHORE  1200   45      30/ 21/ 23 1027.6R


STATION/POSITION TIME  TEMP    WIND        PRES    WAVE   SWELL
                       AIR SEA DIR/SP/G            HT/PER HT/PER/DIR
                 (UTC) (F)     (DEG/KT/KT) (MB)    (FT/S) (FT/S/D)
5E ST. MARYS GA  1221      60                N/A     3/ 4
FRYING PAN BUOY  1250   42 64   10/ 17/ 23 1029.6R   5/ 6   2/110/ 9
BUOY 41025       NOT AVBL
CAPE LOOKOUT NC  1300   35     350/ 15/ 18 1029.0R
BUOY 41002       1250   56 68  340/ 25/ 31 1024.1R  10/ 8
BUOY 41010       1220   65 76  320/ 16/ 19 1024.5R
ST AUGUSTINE FL  1300   52 59  340/ 10/ 11 1028.4R


$$



USA.gov is the U.S. government's official web portal to all federal, state and local government web resources and services.